Home > Weather > Rovaniemi > Past weeks

Flag for Finland Past Weather in Rovaniemi, Finland — Yesterday and Last 2 Weeks

Now
46 °F

Clear.


Feels Like: 43 °F
Forecast: 38 / 57 °F
Wind: 7 mph from South

Location: Rovaniemi Airport

Current Time: Aug 29, 2016 at 10:58:21 PM

Latest Report: Aug 29, 2016 at 10:20 PM


Visibility: 10 mi

Pressure: 29.77 "Hg

Humidity: 76%

Dew Point: 39 °F

Location of RovaniemiLocation

Past Weather in Rovaniemi — Graph

°F

Rovaniemi Temperature Yesterday

Maximum temperature yesterday: 54 °F (at 4:20 PM)
Minimum temperature yesterday: 34 °F (at 3:50 AM)
Average temperature yesterday: 44 °F

High & Low Weather Summary for the Past Weeks

 TemperatureHumidityPressure
High68 °F (Aug 18, 4:50 PM)100% (Aug 15, 3:20 AM)30.24 "Hg (Aug 15, 3:20 AM)
Low34 °F (Aug 28, 3:50 AM)42% (Aug 24, 4:20 PM)29.15 "Hg (Aug 27, 12:50 PM)
Average52 °F83%29.97 "Hg
* Reported Aug 14 9:20 PM — Aug 29 9:20 PM, Rovaniemi, Weather by CustomWeather, © 2016

Note: Actual official high and low records may vary slightly from our data, if they occured in-between our weather recording intervals... More about our weather records

Advertising

Rovaniemi Weather History for the Previous 24 Hours

Scroll right to see more
 ConditionsComfort  
Time TempWeatherWind HumidityBarometerVisibility
9:20 PM
Mon, Aug 29
48 °FSunny.3 mph71%29.77 "Hg10 mi
8:50 PM48 °FSunny.6 mph71%29.77 "Hg10 mi
8:20 PM50 °FSunny.13 mph67%29.77 "Hg10 mi
7:50 PM52 °FSunny.12 mph62%29.77 "Hg10 mi
7:20 PM54 °FSunny.13 mph58%29.77 "Hg10 mi
6:50 PM55 °FSunny.14 mph55%29.77 "Hg10 mi
6:20 PM55 °FSunny.16 mph55%29.77 "Hg10 mi
5:50 PM55 °FSunny.14 mph51%29.80 "Hg10 mi
4:50 PM57 °FSunny.16 mph51%29.80 "Hg10 mi
4:20 PM57 °FSunny.15 mph51%29.80 "Hg10 mi
3:50 PM57 °FSunny.15 mph48%29.80 "Hg10 mi
3:20 PM59 °FSunny.14 mph48%29.80 "Hg10 mi
2:50 PM55 °FSunny.12 mph47%29.80 "Hg10 mi
2:20 PM55 °FSunny.16 mph47%29.83 "Hg10 mi
1:50 PM55 °FSunny.14 mph51%29.83 "Hg10 mi
1:20 PM54 °FSunny.17 mph54%29.83 "Hg10 mi
12:50 PM55 °FSunny.18 mph47%29.83 "Hg10 mi
12:20 PM54 °FSunny.16 mph54%29.83 "Hg10 mi
11:50 AM54 °FSunny.14 mph51%29.83 "Hg10 mi
11:20 AM52 °FSunny.13 mph58%29.86 "Hg10 mi
10:50 AM52 °FSunny.9 mph54%29.86 "Hg10 mi
10:20 AM50 °FSunny.9 mph62%29.86 "Hg10 mi
9:50 AM46 °FSunny.9 mph76%29.86 "Hg10 mi
9:20 AM45 °FSunny.8 mph81%29.86 "Hg10 mi
8:50 AM41 °FSunny.8 mph93%29.86 "Hg10 mi
8:20 AM39 °FSunny.12 mph100%29.86 "Hg10 mi
7:50 AM39 °FFog.13 mph100%29.86 "HgN/A
7:20 AM37 °FChilly.12 mph100%29.86 "HgN/A
6:50 AM39 °FFog.12 mph100%29.86 "Hg0 mi
6:20 AM39 °FFog.10 mph100%29.89 "Hg0 mi
5:50 AM41 °FFog.10 mph93%29.89 "Hg0 mi
5:20 AM41 °FFog.12 mph100%29.89 "Hg1 mi
4:50 AM39 °FFog.12 mph93%29.89 "Hg1 mi
4:20 AM39 °FClear.12 mph100%29.92 "Hg10 mi
3:50 AM39 °FClear.12 mph93%29.92 "Hg10 mi
3:20 AM39 °FClear.12 mph93%29.92 "Hg10 mi
2:50 AM39 °FClear.12 mph93%29.92 "Hg10 mi
2:20 AM41 °FClear.13 mph81%29.92 "Hg10 mi
1:50 AM39 °FClear.12 mph87%29.92 "Hg10 mi
1:20 AM41 °FClear.10 mph81%29.95 "Hg10 mi
12:50 AM39 °FClear.10 mph87%29.95 "Hg10 mi
12:20 AM41 °FClear.12 mph81%29.95 "Hg10 mi
11:50 PM
Sun, Aug 28
43 °FClear.12 mph81%29.95 "Hg10 mi
11:20 PM43 °FClear.10 mph81%29.95 "Hg10 mi
10:50 PM45 °FClear.10 mph76%29.95 "Hg10 mi
10:20 PM45 °FClear.9 mph76%29.95 "Hg10 mi
Weather by CustomWeather, © 2016

See weather overviewHow to use our weather pages